Location: Ergnies
(50.0854°N, 2.0375°E)
Time: 08:50:34
(UTC+00:00)

TIMED - Pass Details

Date: 14 January 2026
Orbit: 581 x 584 km, 74.1° (Epoch: 17 February)

Event Time Altitude Azimuth Distance (km) Brightness Sun altitude
Rises 05:52:24 0° 203° (SSW) 2,789 7.8 -17.5°
Reaches altitude 10° 05:54:36 10° 204° (SSW) 1,894 6.9 -17.1°
Maximum altitude 05:58:50 85° 292° (WNW) 591 4.3 -16.5°
Drops below altitude 10° 06:03:06 10° 23° (NNE) 1,911 7.2 -15.8°
Sets 06:05:20 0° 24° (NNE) 2,816 8.1 -15.5°
